Location: Newark
(47.5000°N, 4.6167°E)
Time: 00:57:20
(UTC+00:00)

ISS - Pass Details

Date: 15 May 2021
Orbit: 417 x 422 km, 51.6° (Epoch: 14 June)

Event Time Altitude Azimuth Distance (km) Brightness Sun altitude
Rises 23:13:42 0° 277° (W) 2,367 0.2 -23.2°
Reaches altitude 10° 23:15:53 10° 286° (WNW) 1,504 -0.7 -23.2°
Maximum altitude 23:19:05 39° 357° (N) 647 -2.3 -23.3°
Drops below altitude 10° 23:22:18 10° 68° (ENE) 1,508 -0.8 -23.3°
Sets 23:24:29 0° 76° (ENE) 2,373 0.2 -23.3°
